Home > Weather > Miramichi > Past weeks

Flag for Canada Past Weather in Miramichi, New Brunswick, Canada — Yesterday and Last 2 Weeks

Now
57 °F

Partly sunny.


Feels Like: 56 °F
Forecast: 45 / 64 °F
Wind: 7 mph from Northeast

Location: Bathurst Airport

Current Time: May 28, 2016 at 3:20:51 PM

Latest Report: May 28, 2016 at 3:00 PM


Visibility: 15 mi

Pressure: 30.14 "Hg

Humidity: 72%

Dew Point: 48 °F

Location of MiramichiLocation

Past Weather in Miramichi — Graph

°F

Miramichi Temperature Yesterday

Maximum temperature yesterday: 48 °F (at 4:00 PM)
Minimum temperature yesterday: 43 °F (at 4:00 AM)
Average temperature yesterday: 46 °F

High & Low Weather Summary for the Past Weeks

 TemperatureHumidityPressure
High81 °F (May 21, 3:00 PM)100% (May 14, 6:00 AM)30.31 "Hg (May 14, 6:00 AM)
Low34 °F (May 19, 6:00 AM)21% (May 21, 3:00 PM)29.27 "Hg (May 16, 6:00 AM)
Average54 °F73%29.88 "Hg
* Reported May 13 2:00 PM — May 28 2:00 PM, Miramichi, Weather by CustomWeather, © 2016

Note: Actual official high and low records may vary slightly from our data, if they occured in-between our weather recording intervals... More about our weather records

Advertising

Miramichi Weather History for the Previous 24 Hours

Scroll right to see more
 ConditionsComfort  
Time TempWeatherWind HumidityBarometerVisibility
2:00 PM
Sat, May 28
55 °FPartly sunny.8 mph77%30.13 "Hg15 mi
1:00 PM57 °FOvercast.7 mph67%30.11 "Hg12 mi
12:00 PM57 °FMostly cloudy.6 mph67%30.09 "Hg12 mi
11:00 AM57 °FCloudy.8 mph72%30.07 "Hg10 mi
10:00 AM55 °FMostly cloudy.8 mph82%30.05 "Hg9 mi
9:00 AM50 °FFog.5 mph100%30.04 "Hg6 mi
8:00 AM50 °FFog.3 mph94%30.00 "Hg6 mi
7:00 AM50 °FPartly sunny.2 mph94%29.98 "Hg10 mi
6:00 AM48 °FMostly cloudy.2 mph100%29.97 "Hg10 mi
5:00 AM48 °FLow clouds.2 mph100%29.96 "Hg10 mi
4:47 AM48 °FLow clouds.No wind100%29.95 "Hg8 mi
4:00 AM48 °FFog.2 mph100%29.94 "Hg6 mi
3:00 AM48 °FFog.2 mph100%29.94 "Hg3 mi
2:00 AM48 °FFog.2 mph100%29.95 "Hg1 mi
1:00 AM48 °FFog.No wind100%29.95 "Hg1 mi
12:45 AM48 °FFog.No wind100%29.96 "Hg1 mi
12:00 AM48 °FLow clouds.2 mph100%29.96 "Hg8 mi
11:00 PM
Fri, May 27
48 °FLow clouds.2 mph100%29.99 "Hg10 mi
10:00 PM48 °FOvercast.2 mph94%29.99 "Hg10 mi
9:00 PM48 °FLow clouds.5 mph94%30.01 "Hg8 mi
8:00 PM48 °FThunderstorms. Low clouds.3 mph94%30.00 "Hg6 mi
7:00 PM48 °FSprinkles. Fog.7 mph94%30.01 "Hg4 mi
6:53 PM48 °FSprinkles. Fog.3 mph94%30.04 "Hg4 mi
6:00 PM46 °FSprinkles. Fog.5 mph93%30.06 "Hg5 mi
5:00 PM46 °FSprinkles. Fog.6 mph93%30.09 "Hg5 mi
4:00 PM48 °FOvercast.8 mph82%30.12 "Hg15 mi
3:00 PM46 °FOvercast.6 mph87%30.15 "Hg15 mi
Weather by CustomWeather, © 2016

See weather overviewHow to use our weather pages